Date,TemperatureHighF,TemperatureAvgF,TemperatureLowF,DewpointHighF,DewpointAvgF,DewpointLowF,HumidityHigh,HumidityAvg,HumidityLow,PressureMaxIn,PressureMinIn,WindSpeedMaxMPH,WindSpeedAvgMPH,GustSpeedMaxMPH,PrecipitationSumIn
2013-10-1,80.0,61.7,47.6,63.7,54.9,46.9,99,82,45,30.02,29.91,7,0,8,0.01
2013-10-2,82.8,65.5,51.7,65.0,58.6,51.0,99,81,49,30.03,29.92,11,1,11,0.00
2013-10-3,78.7,63.6,51.3,61.8,57.2,50.8,99,82,47,30.14,30.03,6,0,6,0.00
2013-10-4,83.4,67.0,57.0,71.2,63.4,56.0,98,90,53,30.08,29.97,7,0,7,0.06
2013-10-5,79.6,68.6,64.0,67.6,65.1,63.0,98,89,65,30.11,30.03,4,0,4,0.00
2013-10-6,66.0,64.9,64.0,65.5,64.1,63.0,99,97,93,30.11,30.03,4,0,4,0.09
2013-10-7,76.0,66.0,56.7,71.4,64.0,48.0,99,94,69,30.04,29.72,17,1,19,0.70
2013-10-8,64.8,54.2,46.0,51.8,47.5,43.6,99,81,47,30.36,29.99,9,1,9,0.01
2013-10-9,60.5,52.4,45.3,49.2,46.2,41.7,96,80,56,30.43,30.32,7,1,7,0.00
2013-10-10,61.1,55.8,50.9,54.7,50.5,45.9,89,83,77,30.32,30.10,9,1,9,0.00
2013-10-11,65.8,62.4,58.8,60.8,57.1,52.4,88,83,79,30.11,30.04,8,1,8,0.00
2013-10-12,73.4,63.2,57.1,57.9,50.3,39.2,88,65,30,30.31,30.10,6,1,9,0.00
2013-10-13,66.3,56.7,48.7,53.4,50.4,47.3,96,80,60,30.41,30.30,6,1,8,0.00
2013-10-14,71.1,55.6,47.8,52.2,49.6,46.7,98,82,47,30.39,30.25,4,0,4,0.00
2013-10-15,73.6,56.5,44.9,57.4,50.7,44.1,99,83,52,30.28,30.13,3,0,4,0.00
2013-10-16,66.5,57.2,48.4,59.0,54.1,47.5,98,90,75,30.15,29.93,4,0,4,0.00
2013-10-17,75.5,65.0,59.7,62.7,60.5,58.4,98,87,58,29.93,29.68,6,0,6,0.02
2013-10-18,66.6,59.1,45.6,62.6,48.1,42.0,96,69,43,30.00,29.67,11,3,17,0.00
2013-10-19,62.9,51.5,39.7,52.1,45.2,38.9,98,81,49,30.00,29.77,5,0,6,0.06
2013-10-20,62.0,51.3,40.5,51.8,41.3,34.0,98,73,37,30.08,29.77,13,1,13,0.00
2013-10-21,67.6,49.8,35.9,44.2,39.6,35.1,98,73,32,30.17,30.00,6,0,8,0.00
2013-10-22,61.8,50.5,39.5,51.6,44.5,37.0,99,81,61,30.00,29.75,6,1,6,0.00
2013-10-23,55.4,44.2,35.0,39.9,36.4,33.3,96,76,48,29.83,29.63,10,1,10,0.00
2013-10-24,51.6,43.9,36.5,36.3,31.3,26.0,90,63,40,30.02,29.78,18,2,21,0.00
2013-10-25,51.7,40.7,31.2,34.3,31.1,28.0,94,71,41,30.25,30.02,16,2,16,0.00
2013-10-26,54.5,41.3,28.0,36.8,31.1,27.0,98,71,38,30.24,29.90,15,1,15,0.00
2013-10-27,55.9,47.2,35.5,35.8,33.1,29.7,91,60,39,30.14,29.86,13,1,14,0.00
2013-10-28,61.4,44.6,29.4,37.0,33.4,28.0,98,70,36,30.34,30.14,16,1,16,0.00
2013-10-29,51.8,43.1,35.6,37.0,33.6,30.0,89,71,46,30.45,30.34,7,1,7,0.00
2013-10-30,55.7,44.5,34.7,49.2,40.0,31.9,96,85,67,30.37,30.20,3,0,3,0.00
2013-10-31,60.4,50.3,39.1,58.5,49.3,38.1,99,97,92,30.26,29.80,7,0,7,0.05